[[{"header":{"parameterUnit":"m.s-1","parameterCategory":2,"la1":30.2991,"la2":30.254,"lo1":-89.0895,"lo2":-89.0444,"dy":0.0017,"dx":0.0017,"nx":28,"ny":28,"refTime":"2023-09-21T21:00:00:Z","depth":"0","parameterNumber":2,"parameterNumberName":"U-component_of_CURRENTS"},"data":[0,0,0,0,0,0,0,0,0,0,0,0,0,0,0,0,0,0,0,0,0,0,0,0,0,0,0,0,0,0,0,0,0,0,0,0,0,0,0,0,0,0,0,0,0,0,0,0,0,0,0,0,0,0,0,0,0,0,-0.2991,-0.2991,0,-0.2963,-0.2963,-0.2963,-0.2888,-0.2887,-0.2885,-0.2883,-0.2838,-0.2838,-0.2838,0,0,0,0,0,0,0,0,0,0,0,0,0,-0.2904,-0.2907,-0.2991,-0.2991,-0.299,-0.2963,-0.2963,-0.2963,-0.2889,-0.2886,-0.2884,-0.2883,-0.2838,-0.2838,-0.2838,0,0,0,0,0,0,0,0,0,0,0,0,0,-0.2917,-0.2908,-0.2991,-0.2949,-0.2945,-0.2963,-0.2963,-0.2963,-0.2889,-0.2886,-0.2884,-0.2882,-0.2837,-0.2838,-0.2838,-0.2891,0,0,-0.284,-0.284,0,0,0,0,0,0,0,0,-0.2916,-0.292,-0.2956,-0.2952,-0.2948,-0.2926,-0.2916,-0.2938,-0.289,-0.2911,-0.2883,-0.288,-0.2867,-0.2865,-0.2866,-0.2889,-0.2887,-0.284,-0.284,-0.284,-0.2841,0,0,0,0,0,0,0,-0.2915,-0.292,-0.2981,-0.2956,-0.2951,-0.2906,-0.2906,-0.2919,-0.2903,-0.2909,-0.2903,-0.29,-0.2864,-0.2866,-0.2865,-0.2886,-0.284,-0.284,-0.2841,-0.2841,-0.2914,-0.2916,0,0,0,0,0,0,-0.2925,-0.2921,-0.2981,-0.298,-0.2925,-0.291,-0.291,-0.2936,-0.2903,-0.2896,-0.2902,-0.2897,-0.2867,-0.2864,-0.2863,-0.2887,-0.284,-0.2841,-0.2841,-0.2913,-0.2915,-0.2916,0,0,0,0,0,0,-0.2924,-0.2932,-0.2982,-0.2946,-0.295,-0.2915,-0.2944,-0.2937,-0.2937,-0.2899,-0.289,-0.291,-0.2864,-0.2862,-0.2883,-0.2886,-0.2841,-0.2842,-0.2911,-0.2913,-0.2916,-0.2959,0,0,0,0,0,0,-0.2922,-0.2933,-0.296,-0.2949,-0.2952,-0.301,-0.2947,-0.2938,-0.2939,-0.2931,-0.2903,-0.2896,-0.2862,-0.2883,-0.2884,-0.2886,-0.2842,-0.2909,-0.2912,-0.2915,-0.2955,-0.2963,-0.2969,0,0,0,0,0,-0.292,-0.2974,-0.2962,-0.2969,-0.2991,-0.3012,-0.3012,-0.2976,-0.2942,-0.2963,-0.2937,-0.2897,-0.2902,-0.2886,-0.2886,-0.2888,-0.2907,-0.2911,-0.2915,-0.2952,-0.2961,-0.2969,0,0,0,0,0,0,-0.2955,-0.2971,-0.2958,-0.3015,-0.3018,-0.2999,-0.3011,-0.2992,-0.299,-0.2972,-0.2932,-0.2926,-0.2941,-0.2926,-0.2909,-0.2921,-0.2893,-0.2897,-0.2922,-0.293,-0.2937,-0.2904,-0.2842,0,0,0,0,0,-0.2977,-0.3013,-0.3018,-0.306,-0.3065,-0.3042,-0.3045,-0.3023,-0.3014,-0.3009,-0.2988,-0.2966,-0.2961,-0.2954,-0.2953,-0.2974,-0.2926,-0.2973,-0.298,-0.2985,-0.2962,-0.2883,-0.2879,-0.2929,-0.2929,-0.2929,0,0,-0.2997,-0.3011,-0.303,-0.3067,-0.3059,-0.3075,-0.3038,-0.305,-0.305,-0.3008,-0.301,-0.2999,-0.2977,-0.2987,-0.2991,-0.2969,-0.296,-0.299,-0.2995,-0.2967,-0.2886,-0.2881,-0.2876,-0.2931,-0.2931,-0.293,0,0,-0.3031,-0.3072,-0.3095,-0.3111,-0.3111,-0.3109,-0.3119,-0.3111,-0.3096,-0.3111,-0.307,-0.3056,-0.3066,-0.3029,-0.3016,-0.3066,-0.3005,-0.308,-0.3074,-0.3,-0.2994,-0.2987,-0.2969,-0.296,-0.3073,-0.3073,-0.3073,0,-0.3043,-0.308,-0.3106,-0.3125,-0.3128,-0.3128,-0.3137,-0.3145,-0.3141,-0.3109,-0.3115,-0.3072,-0.307,-0.3035,-0.3059,-0.3073,-0.3042,-0.3042,-0.3003,-0.2996,-0.2988,-0.297,-0.296,-0.3075,-0.3075,-0.3075,-0.3075,0,-0.3072,-0.3108,-0.3127,-0.3148,-0.317,-0.3186,-0.3194,-0.3197,-0.318,-0.3152,-0.3122,-0.3116,-0.3064,-0.3087,-0.3094,-0.3048,-0.3052,-0.3025,-0.2972,-0.2985,-0.2967,-0.2955,-0.3079,-0.3078,-0.3077,-0.3077,0,0,-0.3075,-0.3128,-0.3133,-0.3119,-0.3176,-0.3173,-0.3203,-0.3186,-0.3141,-0.3151,-0.3084,-0.3102,-0.3063,-0.3048,-0.3046,-0.3008,-0.2972,-0.3008,-0.3003,-0.2971,-0.2846,-0.2811,-0.2795,-0.2932,-0.293,-0.2927,-0.2871,0,-0.307,-0.3089,-0.3133,-0.314,-0.3143,-0.3164,-0.3175,-0.3161,-0.3146,-0.3096,-0.3065,-0.3023,-0.306,-0.303,-0.2999,-0.2981,-0.2937,-0.2992,-0.2853,-0.2849,-0.2798,-0.2777,-0.2671,-0.2606,-0.2859,-0.2857,-0.2856,0,-0.3069,-0.3078,-0.3087,-0.3083,-0.3082,-0.3093,-0.3057,-0.306,-0.3021,-0.3002,-0.2955,-0.2939,-0.291,-0.2926,-0.2863,-0.29,-0.287,-0.2856,-0.2852,-0.2781,-0.2789,-0.2626,-0.2575,-0.2562,-0.2837,-0.2839,-0.284,0,-0.3003,-0.3034,-0.3024,-0.3035,-0.3052,-0.3032,-0.3025,-0.3007,-0.2974,-0.2928,-0.2901,-0.2852,-0.2829,-0.2779,-0.2793,-0.2812,-0.2718,-0.2722,-0.2655,-0.2655,-0.2514,-0.2505,-0.2403,-0.2623,-0.2623,-0.2623,-0.2623,0,-0.2977,-0.2959,-0.2981,-0.2968,-0.2898,-0.2955,-0.2878,-0.286,-0.2853,-0.2796,-0.2829,-0.2793,-0.2788,-0.2757,-0.2749,-0.268,-0.2668,-0.2635,-0.2614,-0.2537,-0.253,-0.2471,-0.2497,-0.2621,-0.2622,-0.2622,-0.2622,0,-0.2903,-0.294,-0.2889,-0.2883,-0.2863,-0.28,-0.277,-0.272,-0.2757,-0.2696,-0.2687,-0.2729,-0.2705,-0.2705,-0.264,-0.2618,-0.2507,-0.2523,-0.2472,-0.2444,-0.2363,-0.2396,-0.2256,-0.2194,-0.2423,-0.2421,-0.242,0,-0.2854,-0.2829,-0.2776,-0.2714,-0.2701,-0.2638,-0.2591,-0.2629,-0.2609,-0.2651,-0.2616,-0.2625,-0.2603,-0.2543,-0.249,-0.2429,-0.2431,-0.2299,-0.2291,-0.232,-0.2342,-0.2371,-0.2332,-0.2153,-0.2149,-0.2146,-0.2144,0,-0.2704,-0.2691,-0.2633,-0.253,-0.2464,-0.2406,-0.237,-0.2364,-0.2431,-0.2441,-0.2468,-0.2471,-0.2449,-0.236,-0.2307,-0.2254,-0.2241,-0.2239,-0.224,-0.2088,-0.2134,-0.2077,-0.229,-0.2119,-0.2122,-0.2124,-0.2125,-0.2126,-0.2544,-0.2456,-0.2383,-0.227,-0.2213,-0.218,-0.2105,-0.2152,-0.2141,-0.216,-0.2263,-0.2254,-0.2248,-0.2163,-0.2117,-0.2002,-0.2057,-0.1941,-0.1976,-0.2002,-0.1932,-0.2126,-0.1949,-0.195,-0.1951,-0.1952,-0.1953,0,-0.2317,-0.2236,-0.2119,-0.2001,-0.1911,-0.1959,-0.1941,-0.1897,-0.1879,-0.1958,-0.1974,-0.2006,-0.1927,-0.1934,-0.1848,-0.1768,-0.1726,-0.1729,-0.173,-0.1698,-0.182,-0.1797,-0.161,-0.161,-0.161,-0.161,-0.161,-0.161,-0.218,-0.2,-0.1947,-0.1722,-0.167,-0.1545,-0.1527,-0.1521,-0.1553,-0.1569,-0.1621,-0.1702,-0.1738,-0.1861,-0.1756,-0.1667,-0.1634,-0.1573,-0.1613,-0.1709,-0.1732,-0.1754,-0.1736,-0.1539,-0.1539,-0.1415,-0.1414,-0.1414]},{"header":{"parameterUnit":"m.s-1","parameterCategory":2,"la1":30.2991,"la2":30.254,"lo1":-89.0895,"lo2":-89.0444,"dy":0.0017,"dx":0.0017,"nx":28,"ny":28,"refTime":"2023-09-21T21:00:00:Z","depth":"0","parameterNumber":3,"parameterNumberName":"V-component_of_CURRENTS"},"data":[0,0,0,0,0,0,0,0,0,0,0,0,0,0,0,0,0,0,0,0,0,0,0,0,0,0,0,0,0,0,0,0,0,0,0,0,0,0,0,0,0,0,0,0,0,0,0,0,0,0,0,0,0,0,0,0,0,0,-0.03,-0.0299,0,-0.0176,-0.0175,-0.0173,-0.0113,-0.0113,-0.0113,-0.0113,0.0066,0.007,0.0075,0,0,0,0,0,0,0,0,0,0,0,0,0,-0.0409,-0.0408,-0.03,-0.0299,-0.0297,-0.0177,-0.0175,-0.0173,-0.0113,-0.0113,-0.0113,-0.0113,0.0064,0.007,0.0076,0,0,0,0,0,0,0,0,0,0,0,0,0,-0.0331,-0.0408,-0.0301,-0.0253,-0.0247,-0.0177,-0.0175,-0.0173,-0.0113,-0.0113,-0.0113,-0.0113,0.0062,0.0069,0.0076,0.0122,0,0,0.0098,0.0101,0,0,0,0,0,0,0,0,-0.0336,-0.0327,-0.0261,-0.0256,-0.025,-0.016,-0.0148,-0.0072,-0.0113,-0.0163,-0.0113,-0.0113,-0.0005,0.0008,0.0031,0.013,0.0138,0.0099,0.0103,0.0106,0.0108,0,0,0,0,0,0,0,-0.0342,-0.0332,-0.0251,-0.026,-0.0253,-0.0212,-0.0201,-0.0133,-0.0084,-0.0159,-0.0154,-0.0141,-0.0001,0.0024,0.0036,0.014,0.0099,0.0105,0.011,0.0112,0.0295,0.0296,0,0,0,0,0,0,-0.0361,-0.0337,-0.0255,-0.0247,-0.0294,-0.021,-0.0198,-0.0189,-0.0086,-0.0071,-0.0141,-0.0139,0.0012,0.0027,0.0042,0.0087,0.0106,0.0113,0.0117,0.0295,0.0295,0.0296,0,0,0,0,0,0,-0.0364,-0.0355,-0.026,-0.0289,-0.0275,-0.0209,-0.0198,-0.0186,-0.0161,-0.0073,-0.0057,-0.0128,0.0012,0.0032,0.0104,0.0095,0.0116,0.0123,0.0294,0.0295,0.0296,0.0187,0,0,0,0,0,0,-0.0368,-0.0357,-0.0358,-0.0291,-0.0274,-0.0225,-0.0197,-0.0184,-0.0153,-0.0148,-0.0056,-0.004,0.0014,0.0093,0.0111,0.0105,0.0128,0.0293,0.0294,0.0295,0.019,0.0184,0.0179,0,0,0,0,0,-0.0372,-0.0372,-0.0359,-0.0349,-0.0277,-0.0225,-0.0212,-0.0165,-0.0153,-0.0143,-0.0078,-0.0043,0.0112,0.0099,0.0121,0.0117,0.0293,0.0294,0.0295,0.0192,0.0185,0.0179,0,0,0,0,0,0,-0.0422,-0.0364,-0.0348,-0.0331,-0.0287,-0.0215,-0.02,-0.0169,-0.0111,-0.0107,-0.0029,-0.0007,0.0051,0.0106,0.009,0.0175,0.0206,0.0212,0.0121,0.0115,0.011,0.0093,0.0134,0,0,0,0,0,-0.0435,-0.042,-0.0359,-0.0348,-0.0327,-0.0266,-0.024,-0.0209,-0.0149,-0.0124,-0.0061,0.001,0.0074,0.011,0.0177,0.0228,0.0274,0.024,0.0234,0.0229,0.0232,0.0285,0.0284,0.03,0.03,0.03,0,0,-0.0454,-0.0419,-0.0413,-0.0358,-0.0319,-0.0297,-0.025,-0.0216,-0.0198,-0.0112,-0.0067,-0.0003,0.0085,0.0137,0.0168,0.0181,0.0249,0.0231,0.0225,0.0232,0.0286,0.0284,0.0283,0.0301,0.0301,0.0301,0,0,-0.0486,-0.0452,-0.0452,-0.0417,-0.0363,-0.0321,-0.0316,-0.0247,-0.0217,-0.0163,-0.0102,-0.0045,0.0057,0.0109,0.0151,0.0161,0.0219,0.0183,0.0141,0.0191,0.0189,0.0188,0.0234,0.0238,0.0178,0.0177,0.0177,0,-0.0517,-0.0504,-0.0445,-0.0433,-0.0412,-0.0339,-0.0337,-0.029,-0.021,-0.0184,-0.0162,-0.0023,0.0041,0.0106,0.0106,0.0146,0.0186,0.015,0.018,0.0181,0.0182,0.0229,0.0234,0.0172,0.0173,0.0174,0.0174,0,-0.0545,-0.0536,-0.053,-0.0495,-0.0462,-0.0446,-0.0378,-0.0342,-0.0298,-0.0251,-0.0178,-0.0087,-0.0008,0.0018,0.0066,0.0107,0.0137,0.0163,0.0185,0.0173,0.0224,0.0232,0.0165,0.0167,0.0168,0.017,0,0,-0.0621,-0.0565,-0.0567,-0.056,-0.0496,-0.0471,-0.0437,-0.0382,-0.0358,-0.0283,-0.0248,-0.0149,-0.0101,-0.0049,0.0017,0.0062,0.0094,0.0108,0.0113,0.0132,0.0203,0.0255,0.0269,0.0121,0.0122,0.0123,0.0231,0,-0.0668,-0.0673,-0.0624,-0.0624,-0.062,-0.0542,-0.0514,-0.0454,-0.039,-0.0334,-0.0243,-0.0178,-0.0125,-0.0089,-0.0039,0.0073,0.0113,0.0062,0.0232,0.0237,0.0268,0.028,0.0324,0.0428,0.0239,0.024,0.0241,0,-0.0721,-0.0713,-0.0733,-0.0686,-0.0676,-0.0663,-0.0601,-0.0561,-0.0463,-0.0413,-0.0337,-0.0254,-0.0164,-0.0124,0.0037,0.0003,0.009,0.0168,0.0174,0.0269,0.0305,0.0416,0.045,0.0604,0.0254,0.0253,0.0252,0,-0.0813,-0.0787,-0.0808,-0.0796,-0.0734,-0.0726,-0.0685,-0.0599,-0.0559,-0.0462,-0.0423,-0.0304,-0.0235,-0.0113,0.0054,0.0045,0.0232,0.024,0.0367,0.0371,0.0469,0.0481,0.0658,0.0339,0.0339,0.0338,0.0338,0,-0.089,-0.0898,-0.0855,-0.0867,-0.0869,-0.0803,-0.0784,-0.0721,-0.064,-0.0595,-0.0475,-0.0407,-0.0229,-0.0093,0.0041,0.024,0.0223,0.037,0.0408,0.0433,0.044,0.0627,0.0678,0.0342,0.0342,0.0341,0.034,0,-0.0982,-0.0961,-0.0969,-0.0929,-0.0915,-0.0916,-0.0844,-0.082,-0.0739,-0.0676,-0.0649,-0.048,-0.0293,-0.0104,0.0113,0.0231,0.0514,0.0477,0.0494,0.0533,0.0784,0.0825,0.1036,0.1136,0.0631,0.0633,0.0635,0,-0.1026,-0.1048,-0.1024,-0.1022,-0.1006,-0.0987,-0.0966,-0.0884,-0.0849,-0.0711,-0.0684,-0.0497,-0.0339,0.0006,0.0255,0.0511,0.0615,0.0684,0.0677,0.0818,0.0893,0.0914,0.0983,0.0761,0.0764,0.0766,0.0768,0,-0.1096,-0.1091,-0.109,-0.1092,-0.1086,-0.1068,-0.1033,-0.1022,-0.0919,-0.0849,-0.0713,-0.0578,-0.0227,0.0111,0.0445,0.059,0.0808,0.0735,0.0888,0.1021,0.1051,0.1158,0.0661,0.0787,0.0785,0.0783,0.0782,0.0782,-0.1127,-0.1144,-0.1141,-0.1135,-0.1131,-0.1131,-0.1114,-0.1065,-0.1005,-0.0866,-0.0738,-0.0495,-0.0006,0.0491,0.0667,0.1043,0.0982,0.1143,0.1184,0.1194,0.1291,0.0832,0.0994,0.0993,0.0993,0.0992,0.0992,0,-0.115,-0.1163,-0.1171,-0.1167,-0.117,-0.1157,-0.1131,-0.1091,-0.1016,-0.0855,-0.0686,-0.0147,0.0331,0.0758,0.1298,0.1491,0.1525,0.1568,0.1618,0.1669,0.1283,0.1292,0.1518,0.1518,0.1518,0.1518,0.1517,0.1517,-0.1159,-0.1177,-0.118,-0.1188,-0.1186,-0.1172,-0.1156,-0.1083,-0.0953,-0.0652,-0.0351,-0.0098,0.0517,0.1393,0.1877,0.1902,0.2068,0.2028,0.2121,0.1858,0.1821,0.1786,0.1809,0.214,0.2141,0.2507,0.251,0.2513]}],[{"header":{"parameterUnit":"m.s-1","parameterCategory":2,"la1":30.2991,"la2":30.254,"lo1":-89.0895,"lo2":-89.0444,"dy":0.0017,"dx":0.0017,"nx":28,"ny":28,"refTime":"2023-09-21T21:00:00:Z","depth":"2","parameterNumber":2,"parameterNumberName":"U-component_of_CURRENTS"},"data":[0,0,0,0,0,0,0,0,0,0,0,0,0,0,0,0,0,0,0,0,0,0,0,0,0,0,0,0,0,0,0,0,0,0,0,0,0,0,0,0,0,0,0,0,0,0,0,0,0,0,0,0,0,0,0,0,0,0,-0.2214,-0.2215,0,-0.2241,-0.2241,-0.2242,-0.2202,-0.22,-0.2199,-0.2198,-0.2172,-0.2173,-0.2174,0,0,0,0,0,0,0,0,0,0,0,0,0,-0.2106,-0.2109,-0.2214,-0.2215,-0.2215,-0.2241,-0.2241,-0.2242,-0.2202,-0.22,-0.2199,-0.2197,-0.2172,-0.2173,-0.2174,0,0,0,0,0,0,0,0,0,0,0,0,0,-0.2145,-0.2109,-0.2214,-0.2198,-0.2197,-0.2241,-0.2242,-0.2242,-0.2202,-0.22,-0.2198,-0.2196,-0.2172,-0.2173,-0.2174,-0.2221,0,0,-0.2177,-0.2177,0,0,0,0,0,0,0,0,-0.2143,-0.2149,-0.22,-0.2199,-0.2198,-0.2216,-0.2194,-0.2232,-0.2203,-0.22,-0.2198,-0.2195,-0.2184,-0.2184,-0.2194,-0.222,-0.2219,-0.2177,-0.2177,-0.2178,-0.2178,0,0,0,0,0,0,0,-0.214,-0.2148,-0.2225,-0.2201,-0.22,-0.2182,-0.2186,-0.2201,-0.2202,-0.22,-0.2198,-0.2201,-0.2182,-0.2193,-0.2193,-0.2219,-0.2177,-0.2177,-0.2178,-0.2178,-0.2268,-0.2269,0,0,0,0,0,0,-0.2141,-0.2146,-0.2224,-0.2226,-0.2165,-0.2186,-0.219,-0.2212,-0.2203,-0.22,-0.2203,-0.2199,-0.2193,-0.2192,-0.2192,-0.2236,-0.2178,-0.2178,-0.2179,-0.2266,-0.2268,-0.227,0,0,0,0,0,0,-0.2139,-0.2149,-0.2223,-0.2185,-0.2193,-0.219,-0.2216,-0.2214,-0.2221,-0.2206,-0.2201,-0.2211,-0.2191,-0.219,-0.2205,-0.2234,-0.2179,-0.218,-0.2264,-0.2267,-0.2269,-0.2331,0,0,0,0,0,0,-0.2137,-0.2149,-0.217,-0.2186,-0.2195,-0.2246,-0.2218,-0.2216,-0.2227,-0.2222,-0.2212,-0.2208,-0.2189,-0.2204,-0.2206,-0.2235,-0.218,-0.2261,-0.2265,-0.2268,-0.2327,-0.2335,-0.2343,0,0,0,0,0,-0.2133,-0.2168,-0.2171,-0.218,-0.2223,-0.2246,-0.225,-0.224,-0.223,-0.2238,-0.2232,-0.2208,-0.2227,-0.2207,-0.2209,-0.2238,-0.226,-0.2264,-0.2268,-0.2323,-0.2334,-0.2343,0,0,0,0,0,0,-0.2139,-0.2168,-0.2171,-0.2216,-0.2228,-0.2239,-0.2253,-0.225,-0.2257,-0.2252,-0.2232,-0.2229,-0.225,-0.2244,-0.2222,-0.2275,-0.224,-0.2245,-0.2281,-0.2291,-0.2299,-0.2289,-0.2181,0,0,0,0,0,-0.2152,-0.2177,-0.2201,-0.2234,-0.2246,-0.2254,-0.2265,-0.226,-0.2267,-0.2267,-0.2266,-0.2268,-0.2274,-0.2279,-0.2283,-0.232,-0.2286,-0.2341,-0.2349,-0.2356,-0.2351,-0.2313,-0.2317,-0.2283,-0.2283,-0.2283,0,0,-0.2162,-0.2181,-0.2196,-0.2235,-0.2247,-0.2279,-0.2255,-0.2276,-0.2295,-0.2266,-0.2297,-0.2295,-0.229,-0.232,-0.2331,-0.2315,-0.2355,-0.2361,-0.2367,-0.2358,-0.2318,-0.2321,-0.2323,-0.2286,-0.2286,-0.2285,0,0,-0.2187,-0.2217,-0.2242,-0.226,-0.2283,-0.2297,-0.2306,-0.233,-0.2329,-0.2363,-0.2344,-0.236,-0.2382,-0.2381,-0.2383,-0.2444,-0.2395,-0.2452,-0.249,-0.2455,-0.2456,-0.2457,-0.2439,-0.2437,-0.2461,-0.2461,-0.2461,0,-0.22,-0.2233,-0.2252,-0.2281,-0.23,-0.231,-0.2342,-0.2358,-0.238,-0.2379,-0.2376,-0.2404,-0.241,-0.2428,-0.2457,-0.2461,-0.2432,-0.245,-0.2462,-0.2462,-0.2461,-0.2442,-0.244,-0.2465,-0.2464,-0.2464,-0.2463,0,-0.222,-0.2265,-0.2283,-0.2327,-0.2359,-0.2381,-0.2412,-0.2429,-0.244,-0.2448,-0.2465,-0.2475,-0.2478,-0.2502,-0.2504,-0.2518,-0.2496,-0.247,-0.243,-0.2468,-0.2447,-0.2443,-0.2469,-0.2468,-0.2467,-0.2466,0,0,-0.2203,-0.2282,-0.2292,-0.2314,-0.2378,-0.2398,-0.2445,-0.2471,-0.2474,-0.2506,-0.2506,-0.2552,-0.2542,-0.2544,-0.2546,-0.2543,-0.2543,-0.2517,-0.2514,-0.2487,-0.2469,-0.2413,-0.2403,-0.2507,-0.2506,-0.2506,-0.2462,0,-0.2206,-0.2269,-0.2315,-0.2375,-0.2404,-0.244,-0.2475,-0.2503,-0.252,-0.2527,-0.2533,-0.2542,-0.256,-0.256,-0.2561,-0.2542,-0.2532,-0.2558,-0.2446,-0.2443,-0.2377,-0.2396,-0.2219,-0.216,-0.2458,-0.2457,-0.2456,0,-0.2212,-0.2238,-0.2307,-0.2374,-0.2391,-0.2432,-0.2466,-0.2498,-0.2518,-0.2523,-0.2535,-0.2535,-0.2556,-0.255,-0.2529,-0.2539,-0.251,-0.2496,-0.2492,-0.2409,-0.2378,-0.2167,-0.2141,-0.2449,-0.245,-0.245,-0.2451,0,-0.2156,-0.2246,-0.2294,-0.2316,-0.239,-0.2409,-0.2445,-0.2485,-0.2494,-0.2513,-0.2518,-0.2526,-0.2527,-0.2497,-0.2495,-0.2499,-0.2451,-0.2442,-0.2362,-0.2358,-0.2169,-0.215,-0.2399,-0.2399,-0.2399,-0.2399,-0.2399,0,-0.2137,-0.2161,-0.2266,-0.2264,-0.2288,-0.2371,-0.2387,-0.2412,-0.2451,-0.2451,-0.2503,-0.2497,-0.251,-0.2494,-0.2477,-0.2412,-0.2427,-0.2364,-0.2336,-0.2191,-0.2175,-0.2391,-0.2391,-0.2397,-0.2398,-0.2398,-0.2398,0,-0.2069,-0.2142,-0.2172,-0.2242,-0.2259,-0.2274,-0.2338,-0.2336,-0.24,-0.2401,-0.2407,-0.2465,-0.2448,-0.2454,-0.2413,-0.2381,-0.2329,-0.2295,-0.2142,-0.2096,-0.2267,-0.227,-0.2196,-0.2194,-0.2192,-0.219,-0.2188,0,-0.2044,-0.2055,-0.213,-0.2128,-0.2152,-0.2186,-0.2191,-0.2276,-0.2287,-0.2366,-0.235,-0.2377,-0.2355,-0.2308,-0.2248,-0.2185,-0.2259,-0.1993,-0.1971,-0.2262,-0.2243,-0.225,-0.2256,-0.1756,-0.1751,-0.1747,-0.1744,0,-0.1938,-0.198,-0.1988,-0.2002,-0.2014,-0.2037,-0.2065,-0.2077,-0.217,-0.2191,-0.2217,-0.2219,-0.2196,-0.2062,-0.2007,-0.1947,-0.1994,-0.1909,-0.2214,-0.1846,-0.1846,-0.1828,-0.1848,-0.1708,-0.1711,-0.1714,-0.1716,-0.1717,-0.1851,-0.1829,-0.1852,-0.1852,-0.1868,-0.1871,-0.1842,-0.1896,-0.1907,-0.1917,-0.2011,-0.1959,-0.1965,-0.179,-0.1704,-0.1638,-0.1772,-0.1691,-0.1703,-0.1719,-0.1688,-0.1684,-0.1512,-0.1514,-0.1516,-0.1518,-0.1519,0,-0.1736,-0.1705,-0.169,-0.1684,-0.1653,-0.1715,-0.1729,-0.1687,-0.1658,-0.1696,-0.1691,-0.1547,-0.1466,-0.148,-0.1321,-0.1299,-0.1284,-0.1248,-0.1225,-0.126,-0.1292,-0.1239,-0.0943,-0.0942,-0.094,-0.0939,0,0,-0.167,-0.1581,-0.1561,-0.1461,-0.1463,-0.1384,-0.1368,-0.134,-0.1338,-0.1283,-0.1258,-0.1361,-0.1421,-0.1182,-0.1128,-0.1006,-0.112,-0.0955,-0.1413,-0.1418,-0.1448,-0.1539,-0.1497,0,0,0,0,0]},{"header":{"parameterUnit":"m.s-1","parameterCategory":2,"la1":30.2991,"la2":30.254,"lo1":-89.0895,"lo2":-89.0444,"dy":0.0017,"dx":0.0017,"nx":28,"ny":28,"refTime":"2023-09-21T21:00:00:Z","depth":"2","parameterNumber":3,"parameterNumberName":"V-component_of_CURRENTS"},"data":[0,0,0,0,0,0,0,0,0,0,0,0,0,0,0,0,0,0,0,0,0,0,0,0,0,0,0,0,0,0,0,0,0,0,0,0,0,0,0,0,0,0,0,0,0,0,0,0,0,0,0,0,0,0,0,0,0,0,-0.0256,-0.0255,0,-0.0157,-0.0156,-0.0155,-0.0101,-0.0101,-0.0101,-0.01,0.0042,0.0045,0.0049,0,0,0,0,0,0,0,0,0,0,0,0,0,-0.031,-0.031,-0.0256,-0.0255,-0.0254,-0.0157,-0.0156,-0.0154,-0.0101,-0.0101,-0.01,-0.01,0.004,0.0045,0.0049,0,0,0,0,0,0,0,0,0,0,0,0,0,-0.0257,-0.031,-0.0257,-0.0215,-0.021,-0.0157,-0.0155,-0.0154,-0.0101,-0.0101,-0.01,-0.01,0.0039,0.0044,0.0049,0.0076,0,0,0.0066,0.0068,0,0,0,0,0,0,0,0,-0.0261,-0.0256,-0.0222,-0.0217,-0.0212,-0.014,-0.0122,-0.0075,-0.0101,-0.0144,-0.01,-0.01,-0.0015,-0.0005,0.0011,0.0082,0.0088,0.0066,0.007,0.0072,0.0073,0,0,0,0,0,0,0,-0.0264,-0.0259,-0.0218,-0.0221,-0.0214,-0.0169,-0.0163,-0.0113,-0.0082,-0.014,-0.0135,-0.0123,-0.0012,0.0005,0.0015,0.0091,0.0066,0.0071,0.0074,0.0076,0.0211,0.0211,0,0,0,0,0,0,-0.028,-0.0263,-0.0221,-0.0215,-0.0234,-0.0169,-0.0161,-0.0164,-0.0084,-0.0071,-0.0123,-0.012,-0.0004,0.0008,0.002,0.0062,0.0072,0.0077,0.008,0.021,0.0211,0.0211,0,0,0,0,0,0,-0.0281,-0.0278,-0.0225,-0.0235,-0.0225,-0.0169,-0.0172,-0.0162,-0.0144,-0.0071,-0.0058,-0.0115,-0.0003,0.0012,0.0062,0.0068,0.0079,0.0084,0.021,0.0211,0.0211,0.0143,0,0,0,0,0,0,-0.0284,-0.0279,-0.0286,-0.0237,-0.0225,-0.0203,-0.0172,-0.0161,-0.0136,-0.0132,-0.0059,-0.0046,-0.0002,0.0054,0.0068,0.0075,0.0088,0.021,0.021,0.0211,0.0145,0.0141,0.0138,0,0,0,0,0,-0.0286,-0.03,-0.0288,-0.0282,-0.0237,-0.0203,-0.0193,-0.0152,-0.0137,-0.0134,-0.0082,-0.0048,0.0068,0.0058,0.0075,0.0084,0.0209,0.021,0.0211,0.0146,0.0142,0.0138,0,0,0,0,0,0,-0.0329,-0.0294,-0.028,-0.0283,-0.0249,-0.0194,-0.0184,-0.0157,-0.0115,-0.0109,-0.0044,-0.0027,0.0018,0.0061,0.0049,0.0126,0.0145,0.0149,0.009,0.0087,0.0084,0.0069,0.0093,0,0,0,0,0,-0.0343,-0.0344,-0.0299,-0.0303,-0.0288,-0.0238,-0.0218,-0.0192,-0.0146,-0.0128,-0.0076,-0.0018,0.0034,0.0067,0.0115,0.0159,0.0196,0.0177,0.0173,0.017,0.017,0.0224,0.0225,0.0214,0.0214,0.0214,0,0,-0.0362,-0.0341,-0.0342,-0.0312,-0.0281,-0.0265,-0.0226,-0.0203,-0.0186,-0.0118,-0.0081,-0.0031,0.0041,0.0086,0.0111,0.0125,0.0192,0.0171,0.0167,0.0169,0.0225,0.0226,0.0227,0.0215,0.0214,0.0214,0,0,-0.0394,-0.0381,-0.0388,-0.0364,-0.0323,-0.0289,-0.0286,-0.0234,-0.0208,-0.0168,-0.0114,-0.0061,0.0015,0.007,0.0108,0.0118,0.0167,0.0134,0.0113,0.0165,0.0166,0.0168,0.0208,0.0213,0.0138,0.0138,0.0138,0,-0.0419,-0.042,-0.0384,-0.0379,-0.0362,-0.0305,-0.0304,-0.0268,-0.0207,-0.0181,-0.0167,-0.0047,0.0009,0.0078,0.0081,0.011,0.0142,0.0118,0.0159,0.0161,0.0164,0.0205,0.0212,0.0135,0.0135,0.0135,0.0136,0,-0.0448,-0.0448,-0.0449,-0.0426,-0.0404,-0.0395,-0.0341,-0.0313,-0.0275,-0.0232,-0.0167,-0.0089,-0.0016,0.0011,0.005,0.0103,0.0119,0.014,0.0163,0.0161,0.0205,0.0213,0.013,0.0131,0.0132,0.0133,0,0,-0.051,-0.0478,-0.048,-0.0475,-0.0429,-0.0415,-0.0385,-0.0336,-0.0311,-0.0249,-0.021,-0.0118,-0.0075,-0.0029,0.0032,0.0083,0.0126,0.0114,0.0118,0.0142,0.0232,0.0263,0.0276,0.015,0.0152,0.0153,0.0251,0,-0.0544,-0.0557,-0.0523,-0.0526,-0.0525,-0.0465,-0.044,-0.0389,-0.0334,-0.0283,-0.0194,-0.0136,-0.009,-0.0054,0.0003,0.0099,0.0146,0.0097,0.0241,0.0246,0.0265,0.0287,0.0254,0.0341,0.026,0.0261,0.0262,0,-0.0588,-0.0584,-0.0604,-0.0573,-0.0565,-0.0557,-0.0504,-0.0472,-0.0382,-0.0339,-0.0263,-0.0193,-0.0098,-0.0068,0.0088,0.0052,0.0131,0.0202,0.0208,0.0268,0.0294,0.0335,0.0361,0.0277,0.0276,0.0275,0.0274,0,-0.0655,-0.0642,-0.0662,-0.0654,-0.0608,-0.06,-0.0572,-0.0496,-0.0465,-0.0374,-0.0341,-0.0222,-0.0159,-0.0043,0.0104,0.0096,0.0269,0.0279,0.0382,0.0384,0.0403,0.0405,0.0378,0.0378,0.0378,0.0377,0.0377,0,-0.0712,-0.072,-0.0698,-0.0706,-0.0714,-0.0663,-0.065,-0.06,-0.0528,-0.0491,-0.038,-0.032,-0.0152,-0.0028,0.0095,0.027,0.0266,0.0385,0.0418,0.0378,0.0377,0.0359,0.0356,0.0381,0.038,0.038,0.0379,0,-0.078,-0.0768,-0.0782,-0.0755,-0.0749,-0.0758,-0.0713,-0.0693,-0.062,-0.0567,-0.0543,-0.0389,-0.0221,-0.0047,0.0155,0.0261,0.0423,0.0482,0.0419,0.0443,0.0501,0.0493,0.0605,0.0607,0.0609,0.0611,0.0612,0,-0.0816,-0.0835,-0.0834,-0.0843,-0.0833,-0.083,-0.0821,-0.0754,-0.0723,-0.0602,-0.0579,-0.0412,-0.0273,0.0037,0.0252,0.0481,0.0476,0.0574,0.056,0.0507,0.0528,0.0517,0.0507,0.0554,0.0554,0.0555,0.0555,0,-0.0872,-0.0877,-0.0883,-0.0909,-0.0917,-0.0914,-0.0894,-0.0885,-0.0794,-0.0733,-0.0613,-0.0495,-0.0193,0.007,0.0362,0.0484,0.0537,0.0593,0.0572,0.0499,0.0466,0.0483,0.0474,0.056,0.056,0.0559,0.0559,0.0559,-0.0904,-0.0931,-0.0946,-0.0963,-0.0974,-0.098,-0.0971,-0.0929,-0.0879,-0.0752,-0.0645,-0.0441,-0.0189,0.0237,0.0439,0.0615,0.0613,0.0655,0.0651,0.0646,0.062,0.0592,0.0704,0.0705,0.0705,0.0705,0.0706,0,-0.094,-0.0965,-0.0991,-0.101,-0.1026,-0.1019,-0.0997,-0.0958,-0.0892,-0.0753,-0.0609,-0.033,-0.003,0.0222,0.0518,0.0697,0.0666,0.0709,0.064,0.0635,0.063,0.06,0.0682,0.0682,0.0682,0.0683,0,0,-0.0958,-0.0997,-0.1009,-0.1041,-0.1052,-0.1052,-0.1035,-0.0962,-0.0849,-0.0696,-0.0539,-0.0317,-0.0011,0.0195,0.0415,0.0562,0.0546,0.0562,0.0564,0.0451,0.0444,0.0583,0.053,0,0,0,0,0]}],[{"header":{"parameterUnit":"m.s-1","parameterCategory":2,"la1":30.2991,"la2":30.254,"lo1":-89.0895,"lo2":-89.0444,"dy":0.0017,"dx":0.0017,"nx":28,"ny":28,"refTime":"2023-09-21T21:00:00:Z","depth":"4","parameterNumber":2,"parameterNumberName":"U-component_of_CURRENTS"},"data":[0,0,0,0,0,0,0,0,0,0,0,0,0,0,0,0,0,0,0,0,0,0,0,0,0,0,0,0,0,0,0,0,0,0,0,0,0,0,0,0,0,0,0,0,0,0,0,0,0,0,0,0,0,0,0,0,0,0,-0.1305,-0.1306,0,-0.138,-0.138,-0.1381,-0.1426,-0.1427,-0.1428,-0.1428,-0.1449,-0.1449,-0.1449,0,0,0,0,0,0,0,0,0,0,0,0,0,-0.1182,-0.1183,-0.1304,-0.1306,-0.1307,-0.138,-0.138,-0.1381,-0.1426,-0.1427,-0.1428,-0.1428,-0.1449,-0.1449,-0.1449,0,0,0,0,0,0,0,0,0,0,0,0,0,-0.1239,-0.1184,-0.1304,-0.1343,-0.1347,-0.138,-0.138,-0.1381,-0.1426,-0.1427,-0.1428,-0.1429,-0.145,-0.1449,-0.1449,-0.1427,0,0,-0.1449,-0.1449,0,0,0,0,0,0,0,0,-0.1235,-0.1242,-0.1336,-0.134,-0.1345,-0.1399,-0.1345,-0.1396,-0.1426,-0.139,-0.1428,-0.1429,-0.143,-0.1432,-0.1437,-0.1428,-0.1429,-0.1449,-0.1449,-0.1449,-0.1449,0,0,0,0,0,0,0,-0.1231,-0.1239,-0.1329,-0.1337,-0.1343,-0.135,-0.1359,-0.1354,-0.1398,-0.1393,-0.1398,-0.1415,-0.1432,-0.1437,-0.1438,-0.1429,-0.1449,-0.1449,-0.1449,-0.1449,-0.1508,-0.1509,0,0,0,0,0,0,-0.1233,-0.1236,-0.1327,-0.1332,-0.1298,-0.1352,-0.1361,-0.1377,-0.14,-0.1406,-0.1414,-0.1417,-0.1437,-0.1438,-0.1439,-0.1509,-0.1449,-0.1449,-0.1449,-0.1506,-0.1508,-0.151,0,0,0,0,0,0,-0.123,-0.124,-0.1324,-0.129,-0.1302,-0.1354,-0.137,-0.1378,-0.1411,-0.1417,-0.1421,-0.1443,-0.1437,-0.1439,-0.147,-0.1506,-0.1449,-0.1448,-0.1504,-0.1507,-0.1509,-0.1588,0,0,0,0,0,0,-0.1226,-0.1238,-0.1257,-0.129,-0.1304,-0.1361,-0.1369,-0.1378,-0.142,-0.1425,-0.1442,-0.1444,-0.1438,-0.1471,-0.147,-0.1505,-0.1448,-0.1502,-0.1505,-0.1508,-0.1583,-0.1593,-0.1601,0,0,0,0,0,-0.1221,-0.124,-0.1257,-0.1269,-0.1325,-0.1362,-0.137,-0.1406,-0.1421,-0.1438,-0.146,-0.1445,-0.149,-0.1472,-0.1471,-0.1506,-0.1501,-0.1504,-0.1508,-0.1579,-0.1591,-0.1601,0,0,0,0,0,0,-0.12,-0.1248,-0.1267,-0.1302,-0.1339,-0.1373,-0.1399,-0.1419,-0.1449,-0.1463,-0.1461,-0.1465,-0.1506,-0.1494,-0.1474,-0.1534,-0.1494,-0.1498,-0.1549,-0.1559,-0.1568,-0.1571,-0.1448,0,0,0,0,0,-0.1204,-0.1232,-0.1275,-0.1307,-0.1327,-0.1366,-0.139,-0.1417,-0.1447,-0.1463,-0.1479,-0.1497,-0.1514,-0.1529,-0.1537,-0.1564,-0.1549,-0.1588,-0.1597,-0.1605,-0.1607,-0.1633,-0.1645,-0.1522,-0.1522,-0.1522,0,0,-0.1208,-0.1238,-0.1257,-0.1306,-0.1338,-0.1375,-0.1382,-0.1431,-0.1471,-0.1458,-0.1518,-0.1526,-0.1528,-0.1569,-0.1586,-0.1567,-0.1629,-0.1609,-0.1616,-0.1614,-0.1638,-0.165,-0.1661,-0.1525,-0.1524,-0.1524,0,0,-0.1226,-0.1256,-0.1286,-0.132,-0.1378,-0.1399,-0.1419,-0.1469,-0.1503,-0.1553,-0.1561,-0.1597,-0.1618,-0.1638,-0.1645,-0.1705,-0.1673,-0.1708,-0.1758,-0.1784,-0.1794,-0.1803,-0.1784,-0.1791,-0.1715,-0.1715,-0.1715,0,-0.1229,-0.1276,-0.1301,-0.1341,-0.1377,-0.1413,-0.1455,-0.1491,-0.155,-0.1584,-0.1585,-0.165,-0.1653,-0.1706,-0.1732,-0.1726,-0.1718,-0.1717,-0.1796,-0.1804,-0.1812,-0.1791,-0.1797,-0.1719,-0.1719,-0.1719,-0.1718,0,-0.1261,-0.1315,-0.1337,-0.1397,-0.1432,-0.1479,-0.1529,-0.158,-0.162,-0.1655,-0.1726,-0.174,-0.1778,-0.1789,-0.1778,-0.184,-0.1808,-0.1802,-0.1767,-0.1829,-0.1802,-0.1807,-0.1726,-0.1724,-0.1723,-0.1722,0,0,-0.1214,-0.1338,-0.1348,-0.14,-0.1471,-0.1504,-0.1576,-0.1646,-0.1705,-0.1758,-0.1825,-0.1867,-0.1879,-0.1888,-0.1888,-0.1913,-0.1955,-0.1884,-0.1884,-0.1863,-0.1984,-0.1845,-0.1836,-0.1967,-0.1968,-0.197,-0.1938,0,-0.1233,-0.1332,-0.138,-0.147,-0.1521,-0.1582,-0.1644,-0.1714,-0.177,-0.1841,-0.1878,-0.193,-0.1915,-0.194,-0.1967,-0.1957,-0.1975,-0.1962,-0.193,-0.1928,-0.1795,-0.184,-0.1975,-0.1942,-0.1943,-0.1944,-0.1944,0,-0.1223,-0.1305,-0.1404,-0.1529,-0.1554,-0.1611,-0.1718,-0.1781,-0.1878,-0.1923,-0.1984,-0.2003,-0.205,-0.2028,-0.205,-0.2042,-0.2022,-0.2009,-0.2008,-0.1853,-0.1798,-0.1871,-0.1953,-0.1952,-0.1951,-0.1951,-0.195,0,-0.1162,-0.1303,-0.1392,-0.1435,-0.1578,-0.164,-0.171,-0.1811,-0.1868,-0.1974,-0.2012,-0.2074,-0.2096,-0.2104,-0.207,-0.207,-0.2072,-0.2066,-0.192,-0.1909,-0.2008,-0.1999,-0.2088,-0.2088,-0.2088,-0.2088,-0.2088,0,-0.1141,-0.1213,-0.1386,-0.1438,-0.1545,-0.1635,-0.1738,-0.1821,-0.1918,-0.1963,-0.2047,-0.2068,-0.2119,-0.2118,-0.2092,-0.2004,-0.209,-0.1927,-0.1899,-0.2039,-0.2034,-0.201,-0.2001,-0.2087,-0.2087,-0.2087,-0.2088,0,-0.1065,-0.1179,-0.1289,-0.1466,-0.1524,-0.1598,-0.1748,-0.1805,-0.191,-0.1968,-0.1996,-0.207,-0.2058,-0.2076,-0.2071,-0.2003,-0.1954,-0.1904,-0.2027,-0.2007,-0.1765,-0.1761,-0.1738,-0.1733,-0.1728,-0.1725,-0.1722,0,-0.1033,-0.109,-0.1291,-0.1361,-0.1454,-0.1581,-0.165,-0.1785,-0.1823,-0.1934,-0.1929,-0.1973,-0.1997,-0.1872,-0.1914,-0.1857,-0.1837,-0.1801,-0.1808,-0.1757,-0.1734,-0.1737,-0.1738,-0.1715,-0.1714,-0.1713,-0.1712,0,-0.0965,-0.1047,-0.1152,-0.1307,-0.1407,-0.1501,-0.1605,-0.1623,-0.1737,-0.1844,-0.181,-0.18,-0.1781,-0.1765,-0.1734,-0.1697,-0.1824,-0.1757,-0.1766,-0.1771,-0.173,-0.1711,-0.1718,-0.1697,-0.1699,-0.1701,-0.1702,0,-0.088,-0.0956,-0.1095,-0.123,-0.1342,-0.1382,-0.1462,-0.1495,-0.1547,-0.1659,-0.1634,-0.168,-0.1747,-0.168,-0.1648,-0.1604,-0.1583,-0.1536,-0.1556,-0.1573,-0.1535,-0.1459,-0.1318,0,0,0,0,0,-0.0764,-0.0867,-0.1,-0.1132,-0.1239,-0.1294,-0.1404,-0.147,-0.1575,-0.1502,-0.1564,-0.1534,-0.1495,-0.1525,-0.1443,-0.1578,-0.1595,-0.1477,-0.1554,-0.1616,-0.1633,-0.1604,0,0,0,0,0,0,-0.0694,-0.0812,-0.0956,-0.1015,-0.1071,-0.1152,-0.1209,-0.1286,-0.1257,-0.1368,-0.1351,-0.1431,-0.1415,-0.1503,-0.1404,-0.1412,-0.1427,-0.1514,-0.1509,-0.1606,-0.1621,-0.1635,-0.1612,0,0,0,0,0]},{"header":{"parameterUnit":"m.s-1","parameterCategory":2,"la1":30.2991,"la2":30.254,"lo1":-89.0895,"lo2":-89.0444,"dy":0.0017,"dx":0.0017,"nx":28,"ny":28,"refTime":"2023-09-21T21:00:00:Z","depth":"4","parameterNumber":3,"parameterNumberName":"V-component_of_CURRENTS"},"data":[0,0,0,0,0,0,0,0,0,0,0,0,0,0,0,0,0,0,0,0,0,0,0,0,0,0,0,0,0,0,0,0,0,0,0,0,0,0,0,0,0,0,0,0,0,0,0,0,0,0,0,0,0,0,0,0,0,0,-0.0189,-0.0188,0,-0.0135,-0.0134,-0.0134,-0.0099,-0.0098,-0.0098,-0.0098,-0.0019,-0.0017,-0.0015,0,0,0,0,0,0,0,0,0,0,0,0,0,-0.0193,-0.0194,-0.0189,-0.0188,-0.0187,-0.0135,-0.0134,-0.0134,-0.0099,-0.0098,-0.0098,-0.0098,-0.0019,-0.0017,-0.0015,0,0,0,0,0,0,0,0,0,0,0,0,0,-0.0172,-0.0194,-0.0189,-0.0163,-0.016,-0.0135,-0.0134,-0.0134,-0.0099,-0.0098,-0.0098,-0.0098,-0.002,-0.0017,-0.0015,-0.0007,0,0,-0.0006,-0.0005,0,0,0,0,0,0,0,0,-0.0173,-0.0172,-0.0167,-0.0165,-0.0161,-0.0122,-0.0107,-0.009,-0.0099,-0.0123,-0.0098,-0.0097,-0.0051,-0.0045,-0.0038,-0.0004,-0.0,-0.0006,-0.0004,-0.0003,-0.0003,0,0,0,0,0,0,0,-0.0175,-0.0173,-0.0169,-0.0167,-0.0163,-0.013,-0.0128,-0.0103,-0.0091,-0.0121,-0.0118,-0.0111,-0.0049,-0.0041,-0.0036,0.0001,-0.0006,-0.0004,-0.0002,-0.0001,0.0065,0.0065,0,0,0,0,0,0,-0.0184,-0.0176,-0.017,-0.0167,-0.0165,-0.0131,-0.0128,-0.0136,-0.0091,-0.0084,-0.0111,-0.0109,-0.0046,-0.0039,-0.0033,-0.001,-0.0003,-0.0001,0.0001,0.0065,0.0065,0.0065,0,0,0,0,0,0,-0.0184,-0.0185,-0.0172,-0.0168,-0.0164,-0.0132,-0.0141,-0.0135,-0.0127,-0.0084,-0.0076,-0.0109,-0.0045,-0.0037,-0.0013,-0.0007,0.0,0.0003,0.0065,0.0065,0.0065,0.003,0,0,0,0,0,0,-0.0185,-0.0186,-0.0194,-0.0169,-0.0165,-0.0165,-0.0141,-0.0134,-0.0123,-0.012,-0.0079,-0.0071,-0.0044,-0.0018,-0.0011,-0.0003,0.0005,0.0065,0.0065,0.0065,0.0031,0.0028,0.0027,0,0,0,0,0,-0.0186,-0.0204,-0.0195,-0.0194,-0.0179,-0.0166,-0.0161,-0.0136,-0.0123,-0.0126,-0.0095,-0.0073,-0.0011,-0.0016,-0.0007,0.0001,0.0065,0.0065,0.0065,0.0031,0.0029,0.0027,0,0,0,0,0,0,-0.0213,-0.0202,-0.0191,-0.0206,-0.0189,-0.0159,-0.0158,-0.014,-0.0119,-0.0116,-0.0074,-0.0065,-0.0042,-0.0017,-0.0023,0.0021,0.0032,0.0034,0.0004,0.0002,-0.0,-0.0005,0.0007,0,0,0,0,0,-0.0223,-0.0234,-0.0212,-0.0224,-0.0217,-0.0188,-0.0179,-0.0164,-0.014,-0.013,-0.01,-0.0066,-0.0035,-0.0015,0.001,0.0033,0.0065,0.0046,0.0044,0.0042,0.0044,0.0102,0.0105,0.0066,0.0066,0.0066,0,0,-0.0237,-0.0231,-0.0237,-0.023,-0.0214,-0.021,-0.0183,-0.0176,-0.0168,-0.0125,-0.0108,-0.0077,-0.0033,-0.0007,0.0007,0.0016,0.0067,0.0042,0.004,0.0043,0.0102,0.0106,0.011,0.0066,0.0066,0.0066,0,0,-0.0263,-0.0265,-0.0277,-0.0268,-0.025,-0.0231,-0.0231,-0.0205,-0.019,-0.0173,-0.0134,-0.0097,-0.0061,-0.0017,0.0008,0.0012,0.0049,0.0017,0.0011,0.0067,0.0071,0.0075,0.0106,0.0113,0.0023,0.0023,0.0023,0,-0.0278,-0.0292,-0.0278,-0.0283,-0.0277,-0.0243,-0.0248,-0.0229,-0.0198,-0.0179,-0.0175,-0.0096,-0.0062,-0.0006,-0.0005,0.0009,0.0036,0.0015,0.0065,0.0069,0.0074,0.0105,0.0114,0.0021,0.0021,0.0022,0.0022,0,-0.0309,-0.0318,-0.0325,-0.0321,-0.0312,-0.0315,-0.0285,-0.0271,-0.0249,-0.022,-0.0173,-0.0122,-0.007,-0.0052,-0.0028,0.0026,0.0031,0.005,0.0069,0.0076,0.0108,0.0117,0.0019,0.0019,0.002,0.002,0,0,-0.0343,-0.0347,-0.0348,-0.0351,-0.0334,-0.0331,-0.0317,-0.0286,-0.0267,-0.023,-0.0196,-0.0134,-0.0099,-0.0067,-0.0023,0.0029,0.0079,0.0048,0.0052,0.0076,0.0185,0.0164,0.0173,0.0106,0.0108,0.0109,0.0189,0,-0.0367,-0.0395,-0.0382,-0.0394,-0.0403,-0.0369,-0.0357,-0.0325,-0.0289,-0.025,-0.018,-0.0138,-0.0106,-0.0079,-0.0021,0.0054,0.0103,0.0054,0.0178,0.0181,0.0161,0.0183,0.0114,0.0196,0.0198,0.02,0.0201,0,-0.0397,-0.0409,-0.0437,-0.043,-0.0429,-0.0431,-0.0399,-0.0381,-0.0315,-0.0285,-0.0222,-0.0169,-0.0086,-0.0065,0.0073,0.0038,0.0105,0.0163,0.0168,0.017,0.0179,0.0194,0.0218,0.0217,0.0215,0.0214,0.0213,0,-0.0431,-0.0443,-0.0469,-0.0471,-0.0459,-0.0459,-0.0447,-0.0396,-0.0378,-0.0306,-0.0281,-0.0176,-0.0126,-0.0021,0.0093,0.0086,0.0238,0.0248,0.0295,0.0293,0.0302,0.0298,0.0347,0.0347,0.0347,0.0347,0.0346,0,-0.0462,-0.0478,-0.0492,-0.0506,-0.0527,-0.0501,-0.05,-0.047,-0.042,-0.0392,-0.0305,-0.0259,-0.0113,-0.001,0.0091,0.0217,0.0242,0.0298,0.032,0.0282,0.0275,0.0308,0.0302,0.035,0.0349,0.0348,0.0348,0,-0.049,-0.0503,-0.0531,-0.0539,-0.0549,-0.0564,-0.0557,-0.0545,-0.0494,-0.0455,-0.0435,-0.0315,-0.0181,-0.0037,0.0138,0.0208,0.0335,0.0374,0.031,0.0326,0.035,0.0341,0.0432,0.0432,0.0432,0.0433,0.0433,0,-0.0502,-0.0527,-0.0568,-0.0597,-0.0607,-0.0626,-0.0635,-0.0596,-0.0574,-0.0486,-0.0464,-0.0337,-0.0243,-0.0011,0.0132,0.0326,0.0351,0.0406,0.0391,0.035,0.0363,0.0354,0.0346,0.0433,0.0433,0.0433,0.0433,0,-0.0521,-0.0546,-0.0572,-0.0641,-0.0675,-0.0692,-0.0697,-0.0686,-0.062,-0.0585,-0.0471,-0.0342,-0.0194,-0.0016,0.0135,0.0273,0.0366,0.0407,0.0408,0.0395,0.0352,0.0362,0.0354,0.0433,0.0433,0.0433,0.0433,0,-0.0523,-0.0564,-0.0616,-0.0672,-0.0721,-0.0734,-0.0731,-0.0688,-0.0656,-0.0547,-0.0516,-0.0345,-0.0243,-0.0043,0.0097,0.023,0.0259,0.0292,0.0299,0.03,0.0235,0.016,0.0208,0,0,0,0,0,-0.0505,-0.057,-0.0641,-0.0697,-0.0746,-0.0767,-0.0758,-0.0735,-0.0679,-0.0605,-0.0551,-0.0407,-0.0185,-0.0088,0.0044,0.0084,0.0268,0.0239,0.0306,0.0435,0.0435,0.0379,0,0,0,0,0,0,-0.05,-0.0574,-0.064,-0.0707,-0.0747,-0.0783,-0.0774,-0.0735,-0.0673,-0.0605,-0.0482,-0.0403,-0.0185,-0.0267,0.0034,0.0075,0.013,0.0348,0.035,0.0435,0.0435,0.0435,0.0377,0,0,0,0,0]}]]